Location: Peebles
(55.6412°N, 3.1714°W)
Time: 08:51:07
(UTC+01:00)

Cosmos 1346 Rocket - Pass Details

Date: 26 September 2021
Orbit: 530 x 547 km, 81.2° (Epoch: 20 October)

Event Time Altitude Azimuth Distance (km) Brightness Sun altitude
Rises 19:40:30 0° 347° (NNW) 2,726 6.6 -6.4°
Reaches altitude 10° 19:42:43 10° 352° (N) 1,830 5.7 -6.8°
Maximum altitude 19:46:42 56° 72° (ENE) 657 2.9 -7.3°
Drops below altitude 10° 19:50:38 10° 151° (SSE) 1,819 5.1 -7.9°
Sets 19:52:50 0° 156° (SSE) 2,707 6.0 -8.2°
